Location: Alsip
(41.6689°N, 87.7387°W)
Time: 13:46:42
(UTC+00:00)

ATLAS 2AS CENTAUR R/B - Pass Details

Date: 14 July 2020
Orbit: 930 x 1282 km, 63.7° (Epoch: 19 July)

Event Time Altitude Azimuth Distance (km) Brightness Sun altitude
Rises 03:27:56 0° 323° (NW) 4,142 7.5 -17.9°
Reaches altitude 10° 03:30:48 10° 321° (NW) 3,130 6.4 -18.3°
Maximum altitude 03:38:12 68° 241° (WSW) 1,197 2.9 -19.0°
Enters shadow 03:41:53 30° 166° (SSE) 1,846 3.4 -19.4°
